Flag Weather past 2 weeks in Lille, France

Now
55 °F

Clear.


Feels Like: 53 °F
Forecast: 40 / 51 °F
Wind: 10 mph from East

Location: Lille Airport

Current Time: Nov 28, 2014 at 6:18:36 PM

Latest Report: Nov 28, 2014 at 5:30 PM


Visibility: 10 mi

Pressure: 29.65 "Hg

Humidity: 77%

Dew point: 48 °F

Location of LilleLocation

Historic Weather in Lille — Graph

°F

Lille temperature yesterday

Maximum temperature yesterday: 52 °F (at 1:30 PM)
Minimum temperature yesterday: 48 °F (at 10:00 AM)
Average temperature yesterday: 50 °F

Past Weeks' High & Low Weather Summary

 TemperatureHumidityPressure
High59 °F (Nov 28, 1:30 PM)100% (Nov 14, 5:00 PM)30.30 "Hg (Nov 14, 5:00 PM)
Low37 °F (Nov 21, 7:30 AM)63% (Nov 28, 2:00 PM)29.47 "Hg (Nov 16, 4:30 PM)
Average47 °F93%29.88 "Hg
* Reported Nov 13 5:30 PM — Nov 28 5:00 PM, Lille, Weather by CustomWeather, © 2014

Note: Actual official high and low records may vary slightly from our data, if they occured in-between our weather recording intervals... More about our weather records

Advertising

Lille weather history for previous 24 hours

 ConditionsComfort  
Time TempWeatherWind HumidityBarometerVisibility
5:00 PM
Nov 28
55 °FClear.7 mph77%29.65 "Hg10 mi
4:30 PM57 °FSunny.8 mph72%29.65 "Hg10 mi
4:00 PM57 °FSunny.7 mph72%29.62 "Hg10 mi
3:30 PM57 °FSunny.8 mph72%29.62 "Hg10 mi
3:00 PM57 °FSunny.8 mph72%29.62 "Hg10 mi
2:30 PM57 °FSunny.7 mph72%29.62 "Hg10 mi
2:00 PM59 °FSunny.9 mph63%29.62 "Hg10 mi
1:30 PM59 °FSunny.7 mph68%29.62 "Hg10 mi
1:00 PM57 °FSunny.8 mph72%29.62 "Hg10 mi
12:30 PM55 °FSunny.6 mph77%29.62 "Hg10 mi
12:00 PM54 °FSunny.7 mph77%29.62 "Hg10 mi
11:30 AM54 °FSunny.7 mph77%29.62 "Hg10 mi
11:00 AM54 °FSunny.10 mph77%29.62 "Hg10 mi
10:34 AM52 °FSunny.10 mph82%29.62 "Hg10 mi
10:00 AM50 °FSunny.9 mph88%29.62 "Hg10 mi
9:30 AM48 °FSunny.8 mph94%29.62 "Hg10 mi
9:00 AM48 °FSunny.8 mph94%29.62 "Hg10 mi
8:30 AM48 °FSunny.9 mph94%29.62 "Hg10 mi
8:00 AM48 °FClear.8 mph94%29.62 "Hg10 mi
7:30 AM48 °FClear.6 mph94%29.62 "Hg4 mi
7:00 AM46 °FClear.7 mph93%29.59 "Hg4 mi
6:30 AM46 °FFog.7 mph93%29.62 "Hg3 mi
6:00 AM48 °FFog.7 mph94%29.59 "Hg3 mi
5:30 AM46 °FFog.8 mph100%29.62 "Hg2 mi
5:00 AM46 °FFog.8 mph100%29.59 "Hg2 mi
4:30 AM48 °FFog.8 mph94%29.59 "Hg2 mi
4:00 AM48 °FFog.7 mph94%29.62 "Hg2 mi
3:30 AM48 °FPassing clouds.7 mph100%29.62 "Hg4 mi
3:00 AM48 °FPassing clouds.7 mph100%29.62 "Hg4 mi
2:30 AM50 °FPartly cloudy.6 mph94%29.62 "HgN/A
2:00 AM50 °FMostly cloudy.7 mph94%29.62 "HgN/A
1:30 AM50 °FOvercast.7 mph94%29.62 "HgN/A
1:00 AM50 °FPassing clouds.6 mph94%29.62 "Hg6 mi
12:30 AM50 °FMostly cloudy.6 mph100%29.62 "Hg6 mi
12:00 AM50 °FFog.5 mph100%29.62 "Hg3 mi
11:30 PM
Nov 27
50 °FFog.6 mph94%29.62 "Hg2 mi
10:30 PM50 °FFog.5 mph94%29.62 "Hg2 mi
10:00 PM50 °FFog.7 mph94%29.65 "Hg2 mi
9:30 PM50 °FLow clouds.5 mph94%29.65 "Hg4 mi
9:00 PM50 °FLow clouds.6 mph94%29.65 "HgN/A
8:30 PM50 °FLow clouds.3 mph94%29.62 "HgN/A
8:00 PM48 °FPassing clouds.5 mph100%29.65 "HgN/A
7:30 PM48 °FPassing clouds.3 mph94%29.65 "HgN/A
7:00 PM50 °FOvercast.3 mph94%29.65 "HgN/A
6:30 PM50 °FLow clouds.5 mph94%29.65 "HgN/A
6:00 PM50 °FLow clouds.8 mph100%29.65 "HgN/A
Weather by CustomWeather, © 2014

See weather overviewHow to use our weather pages